Location: *
(40.7873°S, 98.7174°E)
Time: 21:01:20
(UTC+00:00)

Cosmos 1153 Rocket - Visible Passes

Search period start: 27 February 2024 00:00
Search period end: 08 March 2024 00:00
Orbit: 953 x 1006 km, 82.9° (Epoch: 27 February)

Date Brightness Start Highest point End Pass type
(mag) Time Alt. Az. Time Alt. Az. Time Alt. Az.
27 Feb 7.0 20:17:02 10° ENE 20:21:03 18° E 20:25:05 10° SE visible
27 Feb 4.6 21:59:23 10° NNW 22:05:47 70° W 22:12:13 10° S visible
28 Feb 6.1 20:41:40 10° NNE 20:47:15 33° E 20:52:51 10° SSE visible
28 Feb 5.1 22:26:38 10° NW 22:32:34 39° WSW 22:38:31 10° S visible
29 Feb 5.1 21:07:21 10° N 21:13:38 60° E 21:19:55 10° SSE visible
01 Mar 7.0 19:51:53 10° ENE 19:55:32 16° E 19:59:11 10° SE visible
01 Mar 4.5 21:33:46 10° NNW 21:40:11 77° W 21:46:37 10° S visible
02 Mar 6.2 20:16:18 10° NE 20:21:42 30° E 20:27:07 10° SSE visible
02 Mar 5.0 22:01:05 11° NW 22:06:55 42° WSW 22:12:58 10° S visible
03 Mar 5.1 20:43:36 19° NNE 20:48:03 55° E 20:54:16 10° SSE visible
03 Mar 5.7 22:28:53 10° WNW 22:33:52 24° WSW 22:38:52 10° SSW visible
04 Mar 7.0 19:26:49 10° ENE 19:30:01 14° E 19:33:12 10° SE visible
04 Mar 4.5 21:10:51 27° N 21:14:35 83° W 21:21:00 10° S visible
05 Mar 6.2 19:53:14 19° ENE 19:56:09 27° E 20:01:22 10° SSE visible
05 Mar 4.8 21:38:02 26° NW 21:41:18 46° WSW 21:47:24 10° S visible
06 Mar 5.2 20:20:22 36° NE 20:22:29 50° E 20:28:35 10° SSE visible
06 Mar 5.6 22:05:09 18° WNW 22:08:12 26° WSW 22:13:24 10° SSW visible
07 Mar 7.0 19:02:39 11° E 19:04:30 13° ESE 19:07:07 10° SE visible
07 Mar 4.4 20:47:27 56° N 20:48:59 90° WNW 20:55:23 10° S visible
07 Mar 6.2 22:32:14 10° W 22:35:20 14° WSW 22:38:29 10° SW visible
